Regional Weather Roundup
Issued by NWS Columbia, SC

Current Version | Previous Version | Text Only | Print | Product List | Glossary On
Versions: 1 2 3 4 5 6 7 8 9 10 11 12 13 14 15 16 17 18 19 20 21 22 23 24 25 26 27 28 29 30 31 32 33 34 35 36 37 38 39 40 41 42 43 44 45 46 47 48 49 50
000
ASUS42 KCAE 290410
RWRCAE
REGIONAL WEATHER ROUNDUP
NATIONAL WEATHER SERVICE COLUMBIA SC
1200 AM EDT TUE JUL 29 2014

NOTE: "FAIR" INDICATES FEW OR NO CLOUDS BELOW 12,000 FEET WITH NO
SIGNIFICANT WEATHER AND/OR OBSTRUCTIONS TO VISIBILITY.

NOT ALL STATIONS ARE QUALITY CONTROLLED BY THE NATIONAL
WEATHER SERVICE. USE DATA WITH CAUTION...ESPECIALLY
DEWPOINT OBSERVATIONS.

SCZ001>056-GAZ040-063>065-077-290500-
...UPSTATE SOUTH CAROLINA...

CITY           SKY/WX    TMP DP  RH WIND       PRES   REMARKS
ANDERSON       CLEAR     70  59  68 CALM      29.94S
LIBERTY        FAIR      65  32  29 MISG      29.94F
SPARTANBURG    FAIR      73  59  60 N6        29.93S
CLEMSON        CLEAR     76  57  51 NW6       29.95S
GREENVILLE     CLEAR     73  58  59 N7        29.95S
GREENWOOD      CLEAR     73  61  65 N5        29.94S
GREER          PTCLDY    73  58  59 N7        29.93S
ROCK HILL      MOCLDY    70  61  73 NW3       29.92S
CHESTER        MOCLDY    75  59  57 NW5       29.93R
LAURENS        MOCLDY    73  59  60 N3        29.93S


...CENTRAL SOUTH CAROLINA...

CITY           SKY/WX    TMP DP  RH WIND       PRES   REMARKS
COLUMBIA APT   PTCLDY    81  58  45 NW3       29.88S
COLUMBIA OWENS CLEAR     79  60  52 CALM      29.89S
DARLINGTON     PTCLDY    75  64  69 N5        29.88F
FLORENCE       PTCLDY    78  61  55 N6        29.86F
MCENTIRE ANGB  CLEAR     73  61  65 NW2       29.88S
ORANGEBURG     CLEAR     81  59  47 N5        29.87S
SUMTER SHAW    CLEAR     78  61  55 VRB2      29.86S
NEWBERRY       FAIR      73  59  60 N7        29.94S
AIKEN          FAIR      72  63  73 CALM      29.94R
BARNWELL       FAIR      79  61  53 NW3       29.89S
MANNING        FAIR      77  70  78 CALM      29.86S
CAMDEN         FAIR      73  59  60 N3        29.89S
LANCASTER      FAIR      73  61  64 NW3       29.91S
WINNSBORO      FAIR      73  61  64 N5        29.90S


...EASTERN AND COASTAL SOUTH CAROLINA...

CITY           SKY/WX    TMP DP  RH WIND       PRES   REMARKS
MYRTLE BEACH   CLEAR     75  72  88 NW5       29.82F
N MYRTLE BCH   CLEAR     74  72  93 NW5       29.83S
CONWAY         FAIR      72  72 100 CALM      29.83F FOG
MARION         CLOUDY    77  64  65 N5        29.85F
HARTSVILLE     FAIR      77  41  27 N5        29.89S
FLORENCE       PTCLDY    78  61  55 N6        29.86F
DARLINGTON     PTCLDY    75  64  69 N5        29.88F
CHARLESTON APT PTCLDY    83  73  72 NW9       29.84S
MOUNT PLEASANT FAIR      84  75  74 NW6       29.84R
WALTERBORO     PTCLDY    79  79 100 W3        29.88R
BEAUFORT       PTCLDY    83  73  72 N8        29.85F


...EASTERN GEORGIA...

CITY           SKY/WX    TMP DP  RH WIND       PRES   REMARKS
AUGUSTA BUSH F CLEAR     77  62  59 NW5       29.89R
AUGUSTA DANIEL CLEAR     82  59  45 NW8       29.91S
THOMSON        CLEAR     73  69  85 CALM      29.96S
WASHINGTON     FAIR      77  64  65 NW5       29.93R
CLAXTON        FAIR      77  77 100 CALM      29.89S
SYLVANIA       CLEAR     75  74  95 NW3       29.89S
STATESBORO     CLEAR     75  75 100 CALM      29.89R
SAVANNAH       PTCLDY    80  71  74 W5        29.88S


...SOUTHERN NORTH CAROLINA...

CITY           SKY/WX    TMP DP  RH WIND       PRES   REMARKS
CHARLOTTE      MOCLDY    73  57  57 N8        29.92S
MONROE         MOCLDY    75  58  55 N7        29.90S
WADESBORO      PTCLDY    74  58  58 NW3       29.88F
ROCKINGHAM       N/A     75  59  57 N5        29.88S
RUTHERFORDTON  CLEAR     68  59  73 CALM      29.96S
ASHEVILLE      MOCLDY    68  57  68 N6        30.02S

$$



USA.gov is the U.S. government's official web portal to all federal, state and local government web resources and services.